Temp
-10 -10 -11 -11 -11 -12 -12 -14 -15 -16 -16 -16 -16 -17 -18 -19 -19 -20 -20 -20 -21 -21 -21 -21 -21 -20 -20 -19 -18 -18 -18 -17 -16 -16 -15 -14 -13 -12 -12 -12 -12 -12 -11 -11 -11 -11 -11
-10 -10 -11 -11 -11 -12 -13 -14 -15 -16 -16 -16 -16 -17 -17 -18 -19 -20 -20 -21 -21 -21 -21 -20 -19 -19 -20 -18 -18 -18 -17 -17 -16 -16 -15 -15 -14 -13 -13 -13 -12 -12 -12 -12 -11 -11 -11
-10 -10 -11 -11 -12 -12 -12 -13 -15 -16 -16 -16 -16 -17 -17 -17 -18 -18 -19 -20 -20 -20 -20 -19 -19 -19 -18 -18 -17 -17 -16 -17 -17 -17 -16 -15 -15 -14 -13 -13 -13 -13 -12 -12 -11 -11 -11
-11 -11 -11 -11 -12 -12 -12 -13 -14 -15 -16 -16 -16 -16 -16 -17 -16 -17 -17 -18 -18 -19 -19 -18 -19 -18 -17 -18 -17 -16 -17 -17 -16 -16 -16 -15 -15 -14 -14 -13 -13 -13 -12 -12 -11 -11 -11
-11 -11 -11 -11 -11 -12 -12 -13 -13 -14 -15 -17 -17 -16 -16 -16 -16 -17 -18 -18 -18 -18 -17 -17 -17 -18 -17 -17 -18 -17 -18 -18 -17 -16 -16 -15 -15 -15 -14 -14 -13 -12 -12 -12 -12 -11 -11
-10 -11 -11 -11 -11 -12 -12 -13 -13 -13 -14 -15 -16 -17 -17 -16 -16 -16 -16 -17 -16 -17 -18 -17 -18 -18 -18 -18 -17 -18 -18 -17 -16 -16 -16 -15 -15 -14 -14 -14 -13 -13 -12 -12 -12 -12 -11
-10 -11 -11 -11 -11 -12 -12 -12 -13 -13 -14 -14 -15 -16 -17 -17 -17 -17 -17 -17 -17 -17 -17 -17 -17 -18 -18 -18 -18 -17 -17 -17 -16 -16 -16 -15 -15 -14 -14 -14 -13 -13 -13 -13 -12 -12 -12
-11 -11 -11 -11 -11 -11 -12 -12 -12 -13 -13 -14 -14 -15 -16 -16 -16 -16 -17 -18 -17 -16 -17 -17 -17 -18 -18 -18 -18 -18 -17 -17 -16 -16 -16 -16 -15 -15 -14 -14 -14 -13 -13 -13 -13 -12 -12
-11 -11 -11 -12 -11 -11 -12 -12 -12 -13 -13 -13 -14 -15 -15 -16 -17 -17 -17 -18 -18 -17 -16 -16 -17 -18 -18 -17 -17 -18 -18 -17 -16 -16 -16 -16 -15 -15 -15 -14 -14 -14 -13 -13 -13 -12 -12
-11 -11 -11 -11 -11 -12 -11 -12 -12 -12 -13 -13 -13 -14 -15 -15 -16 -17 -17 -17 -18 -18 -17 -17 -17 -17 -17 -17 -17 -17 -18 -18 -18 -16 -16 -15 -15 -15 -15 -15 -14 -14 -13 -13 -13 -13 -12
-12 -12 -11 -11 -12 -11 -12 -12 -12 -12 -12 -13 -13 -13 -14 -15 -15 -16 -17 -17 -17 -18 -17 -18 -17 -17 -17 -17 -17 -17 -17 -17 -17 -17 -17 -16 -16 -15 -15 -15 -14 -14 -14 -14 -13 -13 -12
-12 -12 -12 -12 -12 -12 -12 -12 -12 -12 -12 -13 -13 -13 -13 -14 -15 -15 -16 -16 -17 -17 -17 -18 -18 -18 -17 -17 -17 -17 -17 -17 -16 -17 -17 -17 -17 -16 -16 -15 -14 -14 -14 -14 -14 -13 -12
-12 -12 -12 -12 -12 -12 -12 -12 -12 -12 -12 -12 -13 -13 -13 -13 -14 -14 -15 -16 -16 -16 -17 -17 -17 -17 -17 -17 -17 -17 -17 -17 -17 -17 -16 -16 -16 -16 -16 -15 -14 -14 -14 -14 -13 -13 -12
-12 -13 -12 -12 -12 -12 -12 -12 -12 -12 -12 -12 -12 -13 -13 -13 -13 -13 -14 -15 -15 -16 -16 -17 -17 -17 -17 -17 -17 -17 -17 -16 -16 -17 -17 -17 -16 -15 -15 -15 -15 -15 -15 -14 -13 -13 -13
-13 -13 -13 -13 -13 -13 -12 -12 -12 -12 -12 -12 -12 -12 -13 -13 -13 -13 -14 -14 -14 -15 -16 -16 -17 -17 -17 -17 -16 -16 -16 -16 -16 -16 -16 -16 -16 -16 -15 -15 -15 -14 -14 -14 -13 -13 -13
-13 -13 -13 -13 -13 -13 -13 -13 -12 -12 -12 -12 -12 -12 -12 -13 -13 -13 -13 -13 -14 -14 -15 -15 -16 -16 -16 -16 -16 -16 -16 -16 -16 -16 -16 -16 -16 -15 -15 -15 -15 -14 -14 -14 -13 -13 -13
-13 -13 -13 -13 -13 -13 -13 -13 -13 -12 -12 -12 -12 -12 -12 -12 -13 -13 -13 -13 -13 -14 -14 -14 -14 -15 -15 -16 -16 -16 -16 -16 -16 -15 -15 -15 -15 -15 -15 -15 -14 -14 -14 -14 -13 -13 -13
-13 -13 -13 -13 -13 -13 -13 -13 -13 -13 -12 -12 -12 -13 -12 -12 -12 -13 -13 -13 -13 -14 -14 -14 -14 -14 -14 -14 -15 -15 -15 -15 -15 -15 -15 -15 -15 -14 -14 -14 -14 -13 -13 -13 -13 -13 -13
-13 -13 -13 -13 -13 -13 -14 -13 -13 -13 -13 -13 -12 -12 -12 -12 -12 -12 -12 -13 -13 -13 -13 -13 -14 -14 -14 -14 -14 -14 -14 -14 -14 -14 -14 -14 -14 -14 -14 -13 -13 -13 -13 -13 -13 -13 -13
-14 -14 -13 -14 -13 -13 -13 -14 -14 -13 -13 -13 -13 -13 -13 -12 -12 -12 -12 -12 -13 -13 -13 -13 -13 -13 -13 -13 -14 -14 -14 -14 -14 -14 -14 -13 -13 -13 -13 -13 -13 -13 -13 -13 -13 -13 -13
-14 -14 -14 -14 -14 -14 -13 -13 -13 -14 -14 -14 -13 -13 -13 -13 -13 -12 -12 -12 -12 -12 -13 -13 -13 -13 -13 -13 -13 -13 -13 -13 -13 -13 -13 -13 -13 -13 -13 -13 -13 -13 -13 -12 -12 -13 -12
-15 -14 -14 -14 -14 -14 -13 -13 -13 -13 -13 -14 -14 -13 -13 -13 -13 -13 -13 -13 -12 -13 -12 -13 -13 -13 -13 -13 -13 -13 -13 -13 -13 -13 -13 -13 -13 -13 -13 -12 -12 -13 -13 -13 -12 -12 -12
-14 -14 -14 -14 -14 -14 -14 -14 -13 -13 -14 -14 -14 -14 -14 -14 -14 -13 -13 -13 -13 -12 -12 -12 -13 -12 -12 -13 -13 -12 -12 -12 -12 -12 -12 -13 -12 -12 -13 -12 -12 -12 -12 -13 -12 -12 -12
-15 -15 -14 -14 -14 -14 -14 -14 -14 -14 -14 -14 -14 -14 -14 -14 -14 -14 -13 -13 -13 -12 -12 -12 -12 -12 -13 -12 -12 -13 -13 -13 -12 -12 -12 -13 -12 -12 -13 -13 -12 -12 -12 -12 -12 -12 -12
-15 -15 -15 -14 -15 -15 -15 -15 -15 -15 -15 -15 -15 -15 -14 -14 -14 -14 -13 -13 -12 -12 -12 -12 -12 -12 -12 -12 -12 -13 -13 -13 -13 -13 -13 -13 -13 -13 -13 -13 -13 -13 -13 -13 -13 -13 -13
-15 -15 -15 -14 -14 -14 -15 -15 -15 -15 -15 -15 -15 -15 -15 -14 -14 -14 -13 -13 -13 -12 -12 -12 -12 -12 -12 -12 -12 -12 -13 -13 -13 -13 -13 -13 -13 -13 -13 -13 -13 -13 -13 -13 -13 -13 -13
-15 -15 -15 -15 -15 -15 -15 -15 -15 -15 -15 -15 -15 -15 -14 -14 -15 -14 -14 -13 -13 -13 -12 -12 -12 -13 -12 -12 -12 -12 -12 -13 -13 -13 -13 -13 -13 -13 -13 -13 -14 -14 -14 -14 -14 -14 -14
-16 -16 -15 -15 -15 -15 -15 -14 -15 -15 -15 -15 -15 -15 -15 -14 -14 -14 -14 -14 -14 -13 -13 -13 -13 -13 -13 -13 -13 -12 -12 -13 -13 -13 -13 -13 -13 -14 -14 -14 -15 -14 -14 -13 -14 -14 -14
-16 -16 -16 -16 -16 -16 -16 -15 -15 -15 -15 -15 -16 -16 -16 -16 -15 -15 -14 -14 -14 -14 -15 -15 -14 -14 -14 -14 -13 -13 -13 -13 -13 -13 -14 -14 -14 -14 -14 -15 -15 -15 -14 -14 -14 -14 -15
Height
5789 5782 5773 5764 5752 5741 5727 5713 5702 5697 5688 5676 5659 5645 5634 5619 5609 5602 5598 5594 5592 5593 5594 5595 5601 5608 5616 5624 5639 5647 5654 5664 5676 5693 5706 5717 5730 5741 5753 5764 5773 5781 5789 5796 5802 5807 5811
5791 5783 5775 5767 5756 5746 5732 5718 5708 5701 5693 5683 5670 5655 5642 5628 5620 5614 5608 5605 5603 5604 5606 5607 5612 5621 5626 5638 5647 5653 5661 5670 5681 5696 5708 5718 5730 5739 5751 5760 5769 5778 5784 5791 5798 5803 5808
5793 5786 5778 5769 5760 5750 5739 5725 5714 5705 5697 5688 5679 5670 5656 5640 5633 5626 5620 5616 5617 5617 5618 5618 5617 5621 5631 5641 5648 5657 5666 5672 5684 5697 5711 5720 5729 5740 5748 5756 5766 5774 5782 5787 5793 5799 5804
5795 5788 5781 5772 5765 5755 5745 5732 5721 5711 5703 5694 5686 5678 5669 5659 5651 5642 5638 5630 5630 5629 5628 5626 5629 5634 5641 5646 5651 5659 5665 5677 5688 5699 5710 5722 5732 5740 5749 5758 5764 5771 5778 5783 5790 5795 5800
5797 5791 5784 5776 5768 5761 5751 5741 5729 5719 5710 5700 5694 5687 5680 5671 5664 5660 5652 5649 5645 5642 5641 5640 5643 5647 5653 5656 5659 5665 5670 5680 5690 5702 5714 5724 5733 5741 5749 5756 5764 5770 5778 5782 5787 5791 5796
5799 5793 5787 5779 5771 5764 5757 5747 5737 5727 5717 5708 5700 5694 5688 5682 5675 5671 5668 5662 5658 5657 5654 5653 5653 5660 5660 5662 5666 5671 5677 5684 5695 5706 5716 5726 5735 5743 5748 5756 5764 5770 5775 5780 5785 5789 5792
5802 5796 5790 5783 5775 5768 5762 5753 5745 5735 5726 5717 5710 5702 5696 5690 5685 5680 5678 5675 5673 5667 5664 5665 5664 5665 5666 5669 5672 5677 5682 5688 5698 5708 5718 5726 5735 5742 5749 5756 5761 5767 5772 5777 5782 5786 5790
5804 5798 5792 5787 5780 5772 5765 5758 5751 5743 5734 5725 5717 5709 5703 5699 5694 5688 5683 5683 5680 5677 5673 5671 5672 5672 5674 5676 5679 5681 5687 5695 5701 5710 5718 5728 5734 5742 5748 5754 5761 5767 5772 5777 5781 5784 5787
5806 5801 5795 5789 5784 5776 5769 5763 5757 5749 5742 5734 5726 5718 5711 5704 5699 5693 5690 5688 5686 5683 5682 5678 5678 5680 5681 5682 5684 5688 5690 5696 5703 5711 5719 5727 5735 5741 5747 5753 5759 5764 5769 5773 5778 5780 5782
5809 5804 5799 5793 5787 5782 5774 5767 5761 5755 5748 5741 5734 5726 5719 5712 5707 5702 5698 5694 5691 5690 5689 5688 5687 5686 5687 5687 5689 5692 5697 5700 5706 5712 5719 5726 5733 5739 5745 5751 5757 5762 5767 5770 5773 5776 5779
5810 5806 5801 5795 5790 5785 5779 5773 5766 5760 5754 5748 5742 5735 5728 5720 5715 5711 5706 5701 5697 5696 5694 5696 5695 5695 5694 5695 5696 5697 5700 5705 5710 5716 5722 5728 5733 5738 5744 5750 5755 5760 5763 5767 5769 5771 5773
5811 5808 5803 5798 5792 5788 5782 5777 5772 5765 5760 5754 5748 5742 5736 5731 5725 5719 5715 5711 5705 5704 5701 5701 5701 5701 5701 5701 5702 5704 5706 5709 5713 5718 5723 5728 5733 5739 5744 5749 5754 5758 5761 5763 5766 5768 5770
5811 5808 5804 5800 5794 5790 5785 5780 5775 5770 5765 5760 5754 5749 5744 5739 5734 5728 5722 5719 5717 5712 5709 5709 5708 5707 5707 5707 5708 5708 5710 5713 5715 5719 5723 5729 5734 5739 5743 5747 5752 5756 5759 5761 5764 5765 5766
5810 5807 5804 5800 5796 5791 5788 5783 5778 5774 5770 5765 5760 5755 5750 5746 5741 5737 5731 5728 5725 5719 5716 5715 5714 5714 5713 5713 5713 5713 5715 5717 5719 5721 5723 5727 5733 5737 5742 5746 5749 5752 5756 5758 5760 5761 5762
5808 5806 5804 5800 5796 5792 5788 5785 5782 5777 5774 5769 5764 5760 5756 5751 5747 5744 5739 5737 5731 5727 5724 5722 5721 5719 5719 5719 5721 5721 5722 5723 5724 5725 5728 5729 5732 5736 5740 5744 5749 5751 5754 5756 5756 5757 5757
5805 5803 5802 5799 5796 5793 5789 5785 5782 5780 5776 5772 5768 5764 5761 5756 5752 5748 5744 5743 5739 5735 5732 5729 5728 5726 5725 5724 5725 5725 5726 5727 5728 5730 5732 5734 5736 5739 5741 5745 5747 5749 5751 5753 5753 5753 5753
5802 5800 5799 5798 5795 5793 5790 5785 5781 5779 5777 5775 5771 5768 5765 5761 5757 5754 5750 5747 5744 5741 5739 5737 5734 5732 5731 5730 5728 5728 5730 5731 5731 5733 5734 5736 5739 5741 5742 5744 5745 5747 5747 5749 5750 5751 5751
5798 5797 5795 5794 5793 5791 5789 5786 5782 5779 5776 5775 5772 5770 5767 5764 5762 5757 5754 5751 5749 5747 5744 5743 5741 5739 5737 5736 5735 5733 5733 5733 5733 5734 5735 5737 5739 5740 5742 5743 5743 5744 5746 5747 5748 5750 5749
5793 5793 5792 5790 5789 5787 5785 5784 5782 5780 5777 5774 5772 5770 5768 5766 5763 5760 5757 5754 5752 5750 5748 5747 5745 5744 5744 5743 5742 5740 5739 5738 5738 5738 5739 5740 5742 5742 5743 5745 5744 5744 5745 5745 5745 5745 5746
5787 5787 5787 5786 5785 5784 5782 5780 5778 5777 5776 5774 5772 5769 5767 5765 5762 5761 5759 5757 5755 5752 5750 5748 5748 5746 5745 5744 5744 5744 5744 5743 5742 5742 5741 5741 5742 5743 5744 5743 5744 5744 5744 5744 5744 5744 5742
5781 5781 5780 5780 5780 5779 5777 5776 5774 5773 5772 5771 5769 5767 5765 5763 5762 5760 5758 5757 5755 5753 5752 5750 5747 5747 5746 5745 5744 5743 5741 5741 5742 5742 5743 5743 5742 5741 5739 5740 5741 5741 5739 5738 5738 5737 5737
5773 5774 5774 5774 5773 5773 5772 5771 5769 5768 5767 5766 5765 5764 5762 5761 5760 5758 5757 5755 5754 5753 5752 5750 5749 5746 5744 5742 5743 5742 5742 5740 5739 5739 5738 5739 5740 5739 5738 5737 5735 5734 5733 5732 5731 5729 5729
5764 5766 5766 5766 5766 5766 5766 5765 5764 5763 5762 5760 5759 5758 5758 5756 5756 5755 5754 5752 5751 5749 5749 5747 5747 5746 5744 5743 5740 5739 5738 5737 5737 5736 5736 5735 5733 5734 5735 5732 5732 5732 5726 5724 5723 5723 5723
5754 5755 5756 5757 5758 5758 5758 5758 5758 5757 5755 5754 5753 5752 5752 5751 5750 5749 5749 5748 5746 5746 5744 5743 5742 5741 5742 5740 5739 5737 5735 5733 5733 5732 5731 5731 5730 5729 5729 5727 5726 5724 5721 5720 5719 5718 5716
5744 5745 5746 5747 5747 5749 5749 5749 5749 5749 5748 5746 5745 5744 5742 5742 5743 5742 5742 5741 5740 5739 5739 5738 5737 5736 5735 5734 5734 5733 5732 5731 5728 5727 5726 5725 5724 5723 5722 5721 5720 5716 5713 5713 5713 5711 5710
5732 5733 5735 5737 5738 5738 5739 5739 5739 5739 5739 5738 5738 5737 5735 5734 5735 5734 5733 5733 5732 5731 5731 5730 5729 5728 5728 5727 5726 5726 5724 5724 5723 5722 5719 5717 5716 5715 5714 5713 5712 5709 5703 5703 5702 5701 5700
5720 5722 5724 5725 5726 5728 5728 5729 5729 5729 5729 5729 5730 5729 5729 5728 5727 5726 5724 5724 5723 5722 5721 5720 5718 5718 5718 5717 5717 5717 5716 5715 5715 5713 5712 5709 5707 5706 5702 5701 5702 5697 5694 5692 5691 5693 5687
5706 5708 5710 5713 5715 5716 5717 5718 5719 5719 5719 5719 5719 5720 5720 5719 5718 5717 5716 5714 5713 5712 5710 5710 5709 5708 5708 5707 5707 5706 5706 5705 5705 5703 5702 5700 5698 5696 5693 5691 5690 5687 5683 5681 5678 5676 5674
5690 5694 5697 5699 5702 5704 5705 5707 5707 5708 5709 5709 5708 5708 5708 5709 5708 5706 5705 5705 5704 5702 5700 5697 5697 5696 5695 5695 5695 5694 5695 5694 5694 5693 5691 5690 5687 5684 5684 5681 5677 5673 5670 5669 5664 5664 5662
Wind_Speed
47 50 50 53 58 62 67 69 38 42 44 53 59 52 52 48 42 39 29 24 19 16 24 41 31 42 39 31 47 44 19 32 56 61 59 58 59 58 59 58 55 53 51 50 48 46 45
44 49 49 51 55 59 63 67 46 39 41 47 59 55 53 50 41 41 35 29 26 25 27 26 38 33 43 36 37 33 21 29 48 53 53 52 53 51 52 53 53 52 51 49 48 45 44
42 47 49 49 52 55 59 63 55 34 39 42 46 61 66 58 48 42 37 33 30 27 23 19 32 24 39 33 38 34 30 37 45 48 47 48 47 47 48 48 48 48 49 49 48 46 44
41 43 47 49 49 52 54 59 60 53 40 36 37 44 52 57 51 45 41 32 35 28 24 33 36 29 31 35 30 30 39 41 44 42 44 42 42 41 40 42 43 43 44 44 46 45 43
42 42 45 47 47 48 50 53 57 58 52 43 32 35 39 48 52 43 35 36 29 24 26 25 31 28 24 24 26 30 43 44 45 44 42 40 38 37 37 37 38 38 37 36 36 35 35
41 40 43 45 46 45 47 49 51 55 56 53 45 31 34 39 42 43 43 34 38 29 24 18 17 22 23 22 23 30 42 42 40 42 40 40 36 35 35 35 35 35 34 34 32 32 31
38 40 40 42 44 44 43 46 47 50 52 52 50 44 32 35 35 35 35 34 31 20 24 23 21 22 20 19 25 26 33 38 38 39 38 38 38 36 34 34 33 33 31 32 31 30 30
36 37 40 40 41 43 42 42 44 46 49 49 49 47 44 41 38 30 31 27 28 29 18 20 22 21 20 17 17 28 32 35 36 35 35 35 36 35 33 32 31 30 28 29 29 28 28
33 35 37 38 39 41 42 39 40 43 45 47 46 46 44 42 39 35 29 24 23 27 26 27 21 19 20 21 16 18 34 35 34 34 34 33 32 32 32 31 29 29 29 28 28 29 28
31 33 34 37 37 38 40 38 37 38 40 42 45 43 42 42 40 38 34 26 21 22 21 25 23 22 20 20 21 20 17 29 33 35 33 32 31 31 30 30 31 31 30 30 30 30 30
28 30 32 34 35 36 36 37 35 34 35 38 39 41 41 40 38 38 36 33 21 18 24 24 23 25 26 25 22 22 22 21 23 27 32 31 32 33 31 30 29 30 30 30 30 30 31
26 27 29 31 33 32 34 35 35 32 32 32 35 36 38 38 36 35 34 34 30 23 23 25 25 27 26 24 23 19 20 21 21 22 23 28 29 29 30 29 29 28 28 28 28 27 26
24 24 26 26 29 29 30 31 32 31 30 30 30 31 33 34 35 34 33 31 30 27 25 24 23 22 23 21 21 20 19 17 18 20 21 22 21 25 28 29 30 30 28 27 26 25 24
22 22 22 24 25 26 26 27 29 30 30 28 28 27 28 30 30 32 33 30 27 28 25 21 20 18 17 18 20 19 20 19 16 14 16 22 22 21 23 26 27 27 23 23 20 20 21
18 21 20 22 22 23 24 23 25 26 28 28 27 26 24 24 26 27 31 28 30 28 24 23 21 22 23 23 22 21 20 20 19 18 15 15 19 20 20 18 19 18 17 17 17 19 18
18 19 20 20 21 21 21 22 21 22 23 25 26 25 23 22 21 23 27 24 26 27 26 23 20 19 19 20 20 20 19 19 18 18 16 16 15 15 15 15 16 15 15 15 14 14 11
19 18 18 19 20 20 21 20 20 19 19 21 23 24 24 23 21 19 19 20 21 23 24 24 24 22 19 16 15 15 14 15 15 15 14 14 14 13 12 11 12 13 14 14 12 9 8
20 20 18 17 17 19 20 21 21 20 19 18 18 21 22 22 21 19 17 16 16 17 17 17 19 20 20 19 18 17 17 16 14 14 13 12 10 10 10 9 9 9 9 10 10 10 9
21 22 20 18 17 17 17 19 21 22 19 18 18 17 18 19 20 20 18 16 14 12 12 12 12 13 13 13 14 15 16 15 16 16 15 13 13 11 10 9 9 9 10 11 11 10 10
24 23 24 22 20 19 18 18 18 19 21 19 18 17 18 17 18 20 19 16 15 13 9 7 7 7 7 6 6 6 5 5 5 6 6 7 7 5 5 6 6 9 11 13 14 13 18
28 27 27 28 26 23 21 20 20 19 20 20 20 19 19 17 17 17 18 18 14 12 10 8 5 4 3 1 1 2 2 2 2 2 3 5 6 7 8 10 11 13 15 16 15 19 17
31 30 30 30 30 28 26 24 23 23 22 22 21 22 20 20 18 17 17 17 17 16 13 10 9 6 4 4 4 4 6 6 7 7 8 9 9 10 14 14 14 14 20 21 20 21 21
32 31 31 32 33 33 30 29 28 26 25 25 24 26 25 24 22 20 18 18 18 18 18 15 12 12 10 10 9 8 7 8 9 9 8 11 12 11 12 16 14 15 19 22 24 24 22
38 36 34 34 34 35 35 33 33 32 29 27 26 25 25 27 25 24 24 23 23 22 22 23 20 17 17 15 14 13 14 14 14 14 15 15 16 15 14 18 20 23 27 27 29 27 27
41 43 42 40 38 37 37 39 38 35 32 28 27 27 25 24 25 25 26 28 28 27 27 27 27 25 22 22 21 20 19 18 19 17 20 20 21 21 21 22 23 27 31 32 31 31 31
42 41 40 37 40 40 40 38 37 35 32 30 27 28 27 24 24 26 28 29 30 32 31 31 31 30 30 29 27 25 26 24 23 22 22 24 24 24 25 24 25 28 33 32 30 32 32
45 45 43 39 38 42 43 43 39 37 34 32 30 29 30 29 28 28 30 31 32 33 35 35 34 34 34 35 34 32 32 31 30 29 28 29 29 29 32 31 27 32 35 37 37 33 33
49 48 47 45 43 43 42 41 39 37 37 36 34 33 33 33 36 37 37 38 37 35 34 33 34 36 39 41 38 37 40 38 37 36 34 35 36 34 37 37 37 38 43 44 44 41 43
55 52 50 50 47 43 42 41 42 40 38 40 40 39 41 41 41 41 42 44 43 42 39 37 37 36 40 41 43 47 45 43 42 40 40 40 40 43 41 39 40 44 47 48 50 48 48
Wind_Direction
18 19 17 19 18 17 16 16 27 27 23 24 27 32 34 36 41 53 53 59 73 90 123 127 124 147 162 165 176 190 136 171 181 189 190 190 192 196 202 206 208 210 214 219 222 225 229
19 19 18 20 20 21 18 19 27 29 22 20 28 42 41 40 49 56 54 62 69 90 132 113 98 121 143 155 174 178 182 165 181 185 189 189 191 193 198 205 210 212 214 218 223 228 233
20 20 20 19 22 23 22 22 26 24 22 21 27 44 41 48 51 62 60 70 76 89 122 97 64 73 137 140 169 171 167 165 178 182 188 190 189 192 196 201 207 213 217 220 224 229 235
21 20 20 19 23 24 26 24 25 27 15 18 31 33 45 46 55 65 72 82 93 99 74 64 78 89 124 142 132 153 166 168 172 183 182 188 190 191 196 203 205 209 214 219 224 230 236
18 20 20 20 21 25 26 27 26 26 27 24 22 30 42 53 54 58 76 72 94 100 80 77 81 97 108 109 124 151 159 164 171 179 186 185 188 191 195 199 205 210 214 217 220 224 231
14 19 18 20 20 23 26 28 28 27 27 29 31 34 35 45 54 60 56 64 89 97 125 124 93 111 118 118 128 146 159 159 169 177 181 186 189 193 196 201 205 208 212 215 218 222 225
14 13 19 18 22 21 25 28 31 29 28 29 32 39 37 33 33 37 48 62 68 98 105 110 111 99 102 128 135 146 155 156 165 173 179 184 189 193 197 202 206 210 212 216 219 222 226
12 11 14 19 21 23 21 26 29 32 30 30 30 30 36 43 43 44 39 48 63 66 105 99 95 98 96 105 135 153 156 161 161 169 177 184 189 193 196 200 206 211 216 220 223 225 228
10 11 8 17 19 24 21 23 28 30 32 31 31 31 30 33 39 41 39 46 56 69 79 93 98 104 101 102 116 155 160 161 164 172 178 183 189 192 196 201 206 210 215 220 225 229 232
5 7 8 10 17 22 25 19 24 29 31 32 31 31 32 33 36 42 45 46 56 71 80 84 87 93 96 100 112 123 155 163 170 173 178 182 186 191 197 202 207 212 216 220 226 232 237
1 4 6 5 12 16 23 24 20 23 30 31 32 33 32 33 35 37 40 46 57 78 88 81 82 90 93 93 100 117 135 154 170 180 179 183 189 193 198 203 207 212 216 223 229 237 240
353 358 3 4 7 12 17 23 21 21 24 30 32 32 35 35 36 36 37 40 57 74 89 86 86 87 85 91 93 107 125 137 155 171 186 189 193 197 201 203 210 216 221 227 234 241 252
342 351 355 2 3 7 10 17 20 20 21 25 31 32 35 37 39 41 45 43 53 68 85 89 91 87 87 92 98 100 105 116 141 157 166 185 199 206 207 210 213 218 226 235 241 255 261
330 340 347 355 358 2 6 10 18 18 21 21 25 30 35 37 40 42 46 49 52 61 69 81 92 86 82 91 108 106 102 104 109 131 162 173 178 190 211 216 218 227 231 239 250 255 261
320 327 338 346 352 355 359 5 7 16 16 21 20 23 29 34 38 41 50 47 55 61 65 71 77 85 91 97 96 94 96 97 102 107 119 147 171 180 184 196 211 216 225 238 248 256 271
307 317 326 334 340 346 352 357 1 5 12 15 19 19 18 26 35 37 46 44 53 59 68 73 77 83 88 94 98 100 101 104 104 107 115 121 134 153 166 181 195 208 222 235 248 255 251
296 303 312 324 330 336 341 347 351 354 359 7 13 15 15 15 21 32 39 43 46 54 60 64 73 79 84 92 103 108 112 115 114 116 121 129 136 150 162 178 195 212 223 233 232 227 227
294 294 299 311 323 331 336 336 341 345 343 349 1 7 8 10 14 17 25 33 41 44 55 62 69 73 80 87 94 98 105 108 113 118 124 130 135 143 148 160 167 173 182 193 210 225 242
285 290 292 301 309 316 326 329 330 337 335 330 336 346 356 358 4 7 14 14 23 35 37 46 58 67 71 76 81 90 99 104 109 111 113 119 127 136 145 160 172 194 208 219 229 243 253
279 280 286 289 294 303 311 315 319 325 325 324 319 323 331 341 349 353 357 5 5 6 19 27 35 54 71 74 74 71 65 83 101 117 135 146 155 174 196 215 224 244 250 257 260 264 256
276 278 281 286 290 293 296 300 305 310 312 314 311 304 307 318 327 336 340 343 348 352 348 347 353 344 0 15 96 163 169 185 241 260 270 269 258 240 237 246 251 260 266 267 270 266 257
269 273 277 280 285 287 290 294 296 300 301 303 303 298 292 293 303 311 322 326 328 329 327 326 312 301 287 270 281 264 260 255 247 240 237 245 252 254 270 260 240 243 257 266 263 259 260
266 270 272 276 280 284 287 287 288 290 291 294 295 297 295 291 290 292 298 305 311 309 310 308 301 296 283 273 268 254 255 256 261 262 258 252 256 257 256 276 280 263 258 258 263 268 270
261 264 269 274 277 279 282 284 285 286 286 287 284 282 287 288 290 289 290 292 295 302 302 298 296 288 288 280 273 268 260 254 251 257 260 259 262 261 254 262 269 275 271 273 277 277 279
264 267 266 267 273 278 281 284 284 284 282 280 280 277 273 274 281 283 286 291 289 291 297 295 289 286 282 279 276 276 271 267 260 258 261 261 264 264 258 258 263 269 273 277 282 283 285
261 261 263 268 274 274 277 285 281 280 280 277 276 277 273 266 268 275 278 283 287 284 286 286 285 280 280 277 274 272 274 273 270 269 272 270 269 270 269 266 263 268 270 275 276 278 284
262 264 261 265 269 274 272 277 276 276 277 275 277 275 275 275 279 283 281 283 284 282 282 281 278 272 268 273 270 269 268 271 271 273 273 275 275 274 270 270 272 276 282 283 285 285 280
260 263 264 265 269 269 270 271 270 272 275 273 278 278 276 275 279 283 286 290 291 290 288 288 286 279 274 263 268 267 269 266 267 268 268 270 273 275 275 274 274 275 277 279 282 286 288
259 258 262 265 267 266 263 267 268 266 268 271 271 273 275 279 279 282 284 287 292 292 293 291 284 280 277 274 269 263 264 267 267 265 267 268 268 269 271 272 275 276 279 284 286 291 292